Weather History for Morris, MN

Change the Weather History Date:

Tuesday, February 26, 2013

  Actual Average Record
Temperature  
Mean Temperature 20 °F -  
Max Temperature 24 °F 26 °F 46 °F (1998)
Min Temperature 15 °F 10 °F -14 °F (2011)
Degree Days  
Heating Degree Days 46    
Moisture  
Dew Point 18 °F    
Average Humidity 93    
Maximum Humidity 100    
Minimum Humidity 86    
Precipitation  
Precipitation 0.00 in - - ()
Sea Level Pressure  
Sea Level Pressure 30.00 in    
Wind  
Wind Speed 4 mph (North)    
Max Wind Speed 17 mph    
Max Gust Speed -    
Visibility 1 miles    
Events Fog , Snow    
Averages and records for this station are not official NWS values.
T = Trace of Precipitation, MM = Missing Value Source: NWS Daily Summary

Daily Weather History Graph

Daily Weather History Graph

Search for Another Location

Airport:

Trip Planner

Search our weather history database for the weather conditions in past years. The results will help you decide how hot, cold, wet, or windy it might be!

Date:

Astronomy

Feb. 26, 2013 Rise Set
Actual Time 7:07 AM CST 6:07 PM CST
Civil Twilight 6:37 AM CST 6:36 PM CST
Nautical Twilight 6:02 AM CST 7:11 PM CST
Astronomical Twilight 5:28 AM CST 7:45 PM CST
Moon 7:31 PM CST (2/26) 7:05 AM CST (2/26)
Length of Visible Light 11h 59m
Length of Day
10h 59m
Full, 99% of the Moon is Illuminated
Feb 26
Full
Mar 4
Last Quarter
Mar 11
New
Mar 19
First Quarter
Mar 27
Full

Hourly Weather History & Observations

Time (CST) Temp. Windchill Dew Point Humidity Pressure Visibility Wind Dir Wind Speed Gust Speed Precip Events Conditions
12:11 AM 21.2 °F 13.6 °F 19.4 °F 93% 30.02 in 0.2 mi SE 5.8 mph - N/A Fog Light Freezing Fog
12:31 AM 21.2 °F 16.4 °F 19.4 °F 93% 30.01 in 0.2 mi SE 3.5 mph - N/A Fog Light Freezing Fog
12:51 AM 21.2 °F - 19.4 °F 93% 30.01 in 0.2 mi Calm Calm - N/A Fog Light Freezing Fog
1:11 AM 21.2 °F 16.4 °F 19.4 °F 93% 30.01 in 0.2 mi ESE 3.5 mph - N/A Fog Light Freezing Fog
1:31 AM 19.4 °F 14.3 °F 19.4 °F 100% 30.01 in 0.2 mi SSE 3.5 mph - N/A Fog Light Freezing Fog
1:51 AM 19.4 °F 10.4 °F 19.4 °F 100% 30.03 in 0.2 mi SE 6.9 mph - N/A Snow Light Snow
2:11 AM 19.4 °F 10.4 °F 19.4 °F 100% 30.03 in 0.5 mi SSE 6.9 mph - N/A Snow Light Snow
2:31 AM 19.4 °F 14.3 °F 19.4 °F 100% 30.02 in 0.5 mi SE 3.5 mph - N/A Fog Light Freezing Fog
2:51 AM 19.4 °F 14.3 °F 17.6 °F 93% 30.03 in 1.0 mi SE 3.5 mph - N/A   Overcast
3:11 AM 19.4 °F 12.8 °F 17.6 °F 93% 30.03 in 2.0 mi SSE 4.6 mph - N/A   Overcast
3:31 AM 19.4 °F 14.3 °F 17.6 °F 93% 30.01 in 2.0 mi SSE 3.5 mph - N/A   Overcast
3:51 AM 19.4 °F 14.3 °F 17.6 °F 93% 30.01 in 2.0 mi ESE 3.5 mph - N/A   Overcast
4:11 AM 19.4 °F - 17.6 °F 93% 30.00 in 0.8 mi Calm Calm - N/A   Overcast
4:31 AM 19.4 °F 14.3 °F 17.6 °F 93% 30.00 in 1.2 mi ESE 3.5 mph - N/A   Overcast
4:51 AM 19.4 °F - 17.6 °F 93% 30.00 in 0.8 mi Calm Calm - N/A   Overcast
5:11 AM 19.4 °F - 17.6 °F 93% 29.99 in 0.5 mi Calm Calm - N/A Fog Light Freezing Fog
5:31 AM 19.4 °F 14.3 °F 17.6 °F 93% 29.99 in 0.5 mi ESE 3.5 mph - N/A Fog Light Freezing Fog
5:51 AM 19.4 °F - 17.6 °F 93% 29.99 in 0.2 mi Calm Calm - N/A Fog Light Freezing Fog
6:11 AM 19.4 °F - 17.6 °F 93% 29.99 in 0.2 mi Calm Calm - N/A Fog Light Freezing Fog
6:31 AM 19.4 °F - 17.6 °F 93% 29.99 in 0.2 mi Calm Calm - N/A Fog Light Freezing Fog
6:51 AM 19.4 °F - 19.4 °F 100% 30.00 in 0.2 mi Calm Calm - N/A Fog Light Freezing Fog
7:11 AM 19.4 °F - 17.6 °F 93% 29.99 in 0.2 mi Calm Calm - N/A Fog Light Freezing Fog
7:31 AM 19.4 °F - 17.6 °F 93% 29.99 in 0.2 mi Calm Calm - N/A Fog Light Freezing Fog
7:51 AM 19.4 °F - 17.6 °F 93% 30.00 in 0.2 mi Calm Calm - N/A Fog Light Freezing Fog
8:31 AM 19.4 °F - 17.6 °F 93% 30.00 in 0.2 mi Calm Calm - N/A Fog Light Freezing Fog
8:51 AM 19.4 °F - 17.6 °F 93% 30.00 in 0.2 mi Calm Calm - N/A Fog Light Freezing Fog
9:11 AM 19.4 °F - 17.6 °F 93% 30.00 in 0.2 mi Calm Calm - N/A Fog Light Freezing Fog
9:31 AM 19.4 °F - 17.6 °F 93% 30.00 in 0.2 mi Calm Calm - N/A Fog Light Freezing Fog
9:51 AM 19.4 °F - 17.6 °F 93% 30.00 in 0.5 mi Calm Calm - N/A Fog Light Freezing Fog
10:11 AM 19.4 °F - 17.6 °F 93% 30.00 in 0.5 mi Calm Calm - N/A Fog Light Freezing Fog
10:31 AM 19.4 °F - 17.6 °F 93% 30.01 in 0.5 mi Calm Calm - N/A Fog Light Freezing Fog
10:51 AM 19.4 °F - 17.6 °F 93% 30.02 in 0.2 mi Calm Calm - N/A Fog Light Freezing Fog
11:11 AM 19.4 °F - 17.6 °F 93% 30.02 in 0.2 mi Calm Calm - N/A Fog Light Freezing Fog
11:31 AM 19.4 °F - 19.4 °F 100% 30.02 in 0.2 mi Calm Calm - N/A Fog Light Freezing Fog
11:51 AM 21.2 °F - 19.4 °F 93% 30.02 in 0.5 mi Calm Calm - N/A Fog Light Freezing Fog
12:11 PM 21.2 °F - 19.4 °F 93% 30.02 in 1.0 mi Calm Calm - N/A   Overcast
12:31 PM 23.0 °F - 21.2 °F 93% 30.01 in 1.5 mi Calm Calm - N/A   Overcast
12:51 PM 23.0 °F - 21.2 °F 93% 30.01 in 1.8 mi Calm Calm - N/A   Overcast
1:11 PM 23.0 °F - 21.2 °F 93% 30.00 in 1.8 mi Calm Calm - N/A   Overcast
1:31 PM 23.0 °F 18.4 °F 21.2 °F 93% 30.00 in 1.8 mi North 3.5 mph - N/A   Overcast
1:51 PM 24.8 °F 19.1 °F 21.2 °F 86% 29.99 in 1.8 mi North 4.6 mph - N/A   Overcast
2:11 PM 23.0 °F 15.8 °F 21.2 °F 93% 29.98 in 1.8 mi North 5.8 mph - N/A   Overcast
2:31 PM 24.8 °F 17.9 °F 23.0 °F 93% 29.98 in 2.0 mi North 5.8 mph - N/A   Overcast
2:51 PM 24.8 °F 17.9 °F 23.0 °F 93% 29.97 in 2.5 mi North 5.8 mph - N/A   Overcast
3:11 PM 24.8 °F 17.9 °F 21.2 °F 86% 29.97 in 2.0 mi North 5.8 mph - N/A   Overcast
3:31 PM 24.8 °F 16.1 °F 21.2 °F 86% 29.98 in 2.0 mi NNW 8.1 mph - N/A   Overcast
3:51 PM 24.8 °F 16.9 °F 21.2 °F 86% 29.97 in 2.0 mi North 6.9 mph - N/A   Overcast
4:11 PM 24.8 °F 16.1 °F 21.2 °F 86% 29.98 in 2.5 mi NNW 8.1 mph - N/A   Overcast
4:31 PM 24.8 °F 15.3 °F 21.2 °F 86% 29.97 in 2.5 mi NNW 9.2 mph - N/A   Overcast
4:51 PM 24.8 °F 14.6 °F 21.2 °F 86% 29.98 in 2.5 mi NNW 10.4 mph - N/A   Overcast
5:11 PM 23.0 °F 11.1 °F 21.2 °F 93% 29.98 in 2.5 mi NNW 12.7 mph - N/A   Overcast
5:31 PM 23.0 °F 13.1 °F 21.2 °F 93% 29.98 in 2.0 mi NNW 9.2 mph - N/A   Overcast
5:51 PM 21.2 °F 10.9 °F 21.2 °F 100% 29.99 in 1.5 mi NNW 9.2 mph - N/A   Overcast
6:11 PM 21.2 °F 9.5 °F 19.4 °F 93% 29.98 in 0.5 mi NNW 11.5 mph - N/A Fog Light Freezing Fog
6:31 PM 21.2 °F 7.8 °F 19.4 °F 93% 29.98 in 0.8 mi NW 15.0 mph - N/A   Overcast
6:51 PM 19.4 °F 4.5 °F 17.6 °F 93% 29.98 in 0.5 mi NW 17.3 mph - N/A Fog Light Freezing Fog
7:11 PM 19.4 °F 6.0 °F 17.6 °F 93% 29.99 in 0.5 mi NW 13.8 mph - N/A Fog Light Freezing Fog
7:31 PM 17.6 °F 3.7 °F 17.6 °F 100% 29.99 in 0.2 mi NNW 13.8 mph - N/A Fog Light Freezing Fog
7:51 PM 19.4 °F 6.6 °F 17.6 °F 93% 29.99 in 0.5 mi NW 12.7 mph - N/A Fog Light Freezing Fog
8:09 PM 19.4 °F 7.9 °F 17.6 °F 93% 29.99 in 0.2 mi NNW 10.4 mph - N/A Fog Light Freezing Fog
8:31 PM 17.6 °F 5.0 °F 17.6 °F 100% 29.99 in 0.2 mi NNW 11.5 mph - N/A Fog Light Freezing Fog
8:51 PM 17.6 °F 5.7 °F 15.8 °F 93% 29.99 in 0.5 mi NNW 10.4 mph - N/A Fog Light Freezing Fog
9:11 PM 17.6 °F 5.7 °F 15.8 °F 93% 29.99 in 0.5 mi NNW 10.4 mph - N/A Fog Light Freezing Fog
9:31 PM 17.6 °F 5.0 °F 15.8 °F 93% 29.99 in 0.5 mi NNW 11.5 mph - N/A Fog Light Freezing Fog
9:51 PM 17.6 °F 6.4 °F 15.8 °F 93% 29.99 in 0.8 mi NNW 9.2 mph - N/A   Overcast
10:11 PM 15.8 °F 3.4 °F 15.8 °F 100% 30.00 in 1.0 mi NNW 10.4 mph - N/A   Overcast
10:31 PM 15.8 °F 6.1 °F 14.0 °F 93% 29.99 in 1.8 mi NNW 6.9 mph - N/A   Overcast
10:51 PM 15.8 °F 4.2 °F 12.2 °F 86% 29.99 in 1.2 mi NNW 9.2 mph - N/A   Overcast
11:11 PM 15.8 °F 3.4 °F 12.2 °F 86% 29.99 in 0.8 mi NW 10.4 mph - N/A   Overcast
11:31 PM 15.8 °F 5.1 °F 12.2 °F 86% 30.00 in 1.0 mi NNW 8.1 mph - N/A   Overcast
11:51 PM 15.8 °F 4.2 °F 14.0 °F 93% 30.00 in 0.8 mi NNW 9.2 mph - N/A   Overcast